Home > Weather > Melhus > Past weeks

Flag for Norway Past Weather in Melhus, Norway — Yesterday and Last 2 Weeks

Now
70 °F

Scattered clouds.


Feels Like: 70 °F
Forecast: 57 / 71 °F
Wind: 6 mph from Southeast

Location: Trondheim / Vaernes

Current Time: Jun 29, 2016 at 8:23:17 PM

Latest Report: Jun 29, 2016 at 7:20 PM


Visibility: N/A

Pressure: 29.71 "Hg

Humidity: 40%

Dew Point: 45 °F

Location of MelhusLocation

Past Weather in Melhus — Graph

°F

Melhus Temperature Yesterday

Maximum temperature yesterday: 63 °F (at 6:50 PM)
Minimum temperature yesterday: 50 °F (at 1:50 AM)
Average temperature yesterday: 56 °F

High & Low Weather Summary for the Past Weeks

 TemperatureHumidityPressure
High75 °F (Jun 26, 8:50 PM)100% (Jun 20, 4:50 AM)30.09 "Hg (Jun 20, 4:50 AM)
Low43 °F (Jun 20, 4:50 AM)33% (Jun 20, 2:50 PM)29.56 "Hg (Jun 27, 9:50 AM)
Average57 °F76%29.85 "Hg
* Reported Jun 14 6:20 PM — Jun 29 6:50 PM, Melhus, Weather by CustomWeather, © 2016

Note: Actual official high and low records may vary slightly from our data, if they occured in-between our weather recording intervals... More about our weather records

Advertising

Melhus Weather History for the Previous 24 Hours

Scroll right to see more
 ConditionsComfort  
Time TempWeatherWind HumidityBarometerVisibility
6:50 PM
Wed, Jun 29
70 °FScattered clouds.7 mph40%29.71 "HgN/A
6:20 PM70 °FPassing clouds.9 mph40%29.74 "HgN/A
5:50 PM72 °FSunny.9 mph41%29.74 "Hg10 mi
5:20 PM72 °FScattered clouds.5 mph44%29.74 "HgN/A
4:50 PM70 °FScattered clouds.10 mph46%29.74 "HgN/A
4:20 PM70 °FSunny.9 mph46%29.77 "Hg10 mi
3:50 PM72 °FSunny.6 mph44%29.77 "Hg10 mi
3:20 PM68 °FScattered clouds.9 mph49%29.77 "HgN/A
2:50 PM70 °FScattered clouds.7 mph43%29.77 "HgN/A
2:20 PM70 °FPassing clouds.8 mph46%29.77 "HgN/A
1:50 PM70 °FPassing clouds.5 mph43%29.77 "HgN/A
1:20 PM68 °FPassing clouds.5 mph49%29.80 "HgN/A
12:50 PM66 °FSunny.7 mph49%29.80 "Hg10 mi
12:20 PM66 °FPassing clouds.7 mph52%29.83 "HgN/A
11:50 AM64 °FSunny.8 mph56%29.83 "Hg10 mi
11:20 AM63 °FSunny.7 mph56%29.83 "Hg10 mi
10:50 AM63 °FSunny.7 mph59%29.86 "Hg10 mi
10:20 AM61 °FSunny.8 mph63%29.86 "Hg10 mi
9:50 AM63 °FPassing clouds.8 mph52%29.86 "HgN/A
9:20 AM61 °FSunny.3 mph52%29.86 "Hg10 mi
8:50 AM57 °FSunny.2 mph72%29.89 "Hg10 mi
8:20 AM55 °FPassing clouds.5 mph72%29.89 "HgN/A
7:50 AM54 °FPassing clouds.3 mph77%29.89 "HgN/A
7:20 AM52 °FSunny.7 mph77%29.89 "Hg10 mi
6:50 AM50 °FSunny.7 mph82%29.92 "Hg10 mi
6:20 AM50 °FSunny.5 mph82%29.92 "Hg10 mi
5:50 AM48 °FSunny.6 mph87%29.92 "Hg10 mi
5:20 AM46 °FSunny.7 mph87%29.92 "Hg10 mi
4:50 AM46 °FSunny.9 mph93%29.92 "Hg10 mi
3:50 AM46 °FClear.10 mph93%29.92 "Hg10 mi
2:50 AM46 °FClear.9 mph93%29.92 "Hg10 mi
1:50 AM48 °FClear.6 mph94%29.92 "Hg10 mi
1:20 AM50 °FClear.8 mph88%29.92 "Hg10 mi
12:50 AM52 °FPassing clouds.6 mph88%29.92 "HgN/A
12:20 AM52 °FPassing clouds.3 mph88%29.89 "HgN/A
11:50 PM
Tue, Jun 28
54 °FPassing clouds.2 mph82%29.89 "HgN/A
11:20 PM55 °FSunny.5 mph77%29.89 "Hg10 mi
10:50 PM57 °FSunny.5 mph72%29.89 "Hg10 mi
10:20 PM57 °FSunny.6 mph77%29.89 "Hg10 mi
9:50 PM59 °FPassing clouds.5 mph72%29.89 "HgN/A
9:20 PM59 °FPassing clouds.3 mph72%29.86 "HgN/A
8:50 PM61 °FPassing clouds.6 mph68%29.86 "HgN/A
8:20 PM61 °FPassing clouds.7 mph68%29.86 "HgN/A
Weather by CustomWeather, © 2016

See weather overviewHow to use our weather pages